Regional Weather Roundup
Issued by NWS

Home | Current Version | Previous Version | Text Only | Print | Product List | Glossary On
Versions: 1 2 3 4 5 6 7 8 9 10 11 12 13 14 15 16 17 18 19 20 21 22 23 24 25 26 27
000
ASUS46 KPQR 270510
RWROR

OREGON REGIONAL WEATHER ROUNDUP
NATIONAL WEATHER SERVICE PORTLAND OR
1000 PM PDT THU MAY 26 2016

NOTE: "FAIR" INDICATES FEW OR NO CLOUDS BELOW 12,000 FEET WITH
NO SIGNIFICANT WEATHER AND/OR OBSTRUCTIONS TO VISIBILITY.

ORZ001>013-270600-
NORTHWEST OREGON


CITY           SKY/WX    TMP DP  RH WIND       PRES   REMARKS
ASTORIA        CLOUDY    52  46  80 CALM      30.22S
NEWPORT        CLOUDY    54  48  82 N6        30.29R
PORTLAND       MOCLDY    56  45  66 NW15      30.22R
VANCOUVER WA   CLOUDY    55  45  68 NW8       30.21R
SCAPPOOSE      CLOUDY    53  45  74 NW5       30.21R
HILLSBORO      PTCLDY    52  44  74 NW10      30.21R
AURORA         CLOUDY    54  43  66 VRB3      30.22R
MCMINNVILLE    CLEAR     48  43  82 W5        30.23R
SALEM          CLEAR     53  43  68 W9        30.22R
CORVALLIS        N/A     52  45  76 NW7       30.25R
EUGENE         PTCLDY    50  43  77 NW3       30.23R
$$

ORZ021-028-270600-
SOUTHWEST OREGON


CITY           SKY/WX    TMP DP  RH WIND       PRES   REMARKS
NORTH BEND     PTCLDY    55  50  82 N12       30.27R
BROOKINGS      CLEAR     53  48  83 CALM      30.14R
ROSEBURG       MOCLDY    60  44  55 N7        30.20R
SEXTON SUMMIT  PTCLDY    42  37  82 N9G25     30.16R
MEDFORD        CLEAR     58  40  51 NW5       30.15R
$$

ORZ014>016-041-270600-
COLUMBIA GORGE


CITY           SKY/WX    TMP DP  RH WIND       PRES   REMARKS
TROUTDALE      CLOUDY    57  45  64 NW5       30.20R
THE DALLES     PTCLDY    57  41  55 W28G33    30.09R
$$

ORZ029>031-041-044-049-050-061>064-502-503-505>511-270600-
EASTERN OREGON


CITY           SKY/WX    TMP DP  RH WIND       PRES   REMARKS
REDMOND        CLEAR     48  33  56 NW12      30.11R
BEND           CLEAR     46  34  61 NW7       30.11R
PRINEVILLE     CLEAR     46  36  66 NW9G16    30.12R
KLAMATH FALLS  CLEAR     50  37  61 W7        30.10R
LAKEVIEW       CLOUDY    55  36  47 NW12      30.09R
HERMISTON        N/A    N/A N/A N/A MISG        N/A
PENDLETON      CLEAR     52  37  56 SW16G23   30.02S
JOHN DAY         N/A    N/A N/A N/A MISG        N/A
MEACHAM        CLEAR     44  34  67 VRB3      30.05R
LA GRANDE      CLEAR     52  32  46 NW12      30.02R
BAKER CITY     PTCLDY    50  37  61 NW14      30.01R
BURNS          CLEAR     52  33  48 NW10      30.01R
ROME             N/A     55  32  41 W3        29.97R
ONTARIO        CLOUDY    66  39  37 NW21G29   29.90R
$$




USA.gov is the U.S. government's official web portal to all federal, state and local government web resources and services.